SWA3620 KOKC-KLAS

Flight info

Callsign SWA3620
Flight time N/A
Altitude 30000
Route STPHN3 ZEEWE KA36Y GUP HAHAA RKSTR4
Aircraft B738/M-SDE2E3FGHIRWXY/LB1

Departure

Time 2026-04-25 01:19
Airport OKC Will Rogers World Airport (KOKC)

Arrival

Time N/A
Airport Harry Reid International Airport (KLAS)
Time Latitude Longitude Altitude Speed Heading
2026-04-25 00:47 35.39456 -97.59616 1296 ft 0 kts 353°
2026-04-25 01:09 35.39446 -97.59614 1296 ft 4 kts 353°
2026-04-25 01:09 35.39424 -97.59611 1296 ft 3 kts 353°
2026-04-25 01:09 35.39403 -97.59608 1296 ft 3 kts 353°
2026-04-25 01:09 35.39383 -97.59605 1296 ft 0 kts 353°
2026-04-25 01:12 35.39385 -97.59605 1296 ft 0 kts 351°
2026-04-25 01:12 35.39392 -97.59617 1296 ft 3 kts 292°
2026-04-25 01:13 35.39392 -97.59669 1296 ft 9 kts 274°
2026-04-25 01:13 35.39412 -97.59769 1296 ft 15 kts 286°
2026-04-25 01:13 35.39324 -97.59827 1293 ft 17 kts 179°
2026-04-25 01:13 35.39236 -97.59857 1291 ft 10 kts 226°
2026-04-25 01:14 35.39218 -97.59938 1290 ft 10 kts 270°
2026-04-25 01:14 35.39217 -97.60022 1290 ft 10 kts 270°
2026-04-25 01:14 35.39218 -97.60104 1291 ft 9 kts 270°
2026-04-25 01:14 35.39217 -97.60183 1293 ft 9 kts 269°
2026-04-25 01:15 35.39216 -97.60259 1294 ft 9 kts 269°
2026-04-25 01:15 35.39207 -97.60337 1294 ft 10 kts 240°
2026-04-25 01:15 35.39126 -97.60361 1295 ft 15 kts 179°
2026-04-25 01:15 35.39004 -97.60354 1295 ft 20 kts 179°
2026-04-25 01:16 35.38850 -97.60343 1295 ft 24 kts 175°
2026-04-25 01:16 35.38666 -97.60335 1293 ft 29 kts 178°
2026-04-25 01:16 35.38446 -97.60331 1289 ft 33 kts 181°
2026-04-25 01:16 35.38202 -97.60335 1287 ft 36 kts 177°
2026-04-25 01:17 35.37974 -97.60335 1287 ft 25 kts 192°
2026-04-25 01:17 35.37912 -97.60463 1289 ft 18 kts 273°
2026-04-25 01:17 35.37920 -97.60558 1289 ft 7 kts 294°
2026-04-25 01:17 35.37973 -97.60571 1288 ft 10 kts
2026-04-25 01:18 35.38087 -97.60571 1289 ft 36 kts 359°
2026-04-25 01:18 35.38569 -97.60570 1293 ft 102 kts
2026-04-25 01:18 35.39498 -97.60571 1288 ft 159 kts
2026-04-25 01:18 35.40711 -97.60530 1572 ft 185 kts
2026-04-25 01:19 35.42003 -97.60544 2381 ft 187 kts
2026-04-25 01:19 35.43341 -97.60788 2993 ft 207 kts 338°
2026-04-25 01:19 35.44524 -97.61931 3402 ft 227 kts 314°
2026-04-25 01:19 35.45597 -97.63424 3920 ft 239 kts 313°
2026-04-25 01:20 35.46715 -97.64979 4586 ft 244 kts 314°
2026-04-25 01:20 35.47682 -97.66789 4951 ft 270 kts 288°
2026-04-25 01:20 35.47864 -97.69179 5020 ft 289 kts 267°
2026-04-25 01:20 35.47732 -97.71602 5069 ft 289 kts 265°
2026-04-25 01:21 35.47598 -97.74075 5631 ft 292 kts 266°
2026-04-25 01:21 35.47500 -97.76557 6555 ft 290 kts 267°
2026-04-25 01:21 35.47436 -97.79019 7490 ft 287 kts 268°
2026-04-25 01:21 35.47398 -97.81464 8348 ft 287 kts 269°
2026-04-25 01:22 35.47377 -97.83913 9220 ft 286 kts 270°
2026-04-25 01:22 35.47366 -97.86348 10125 ft 283 kts 271°
2026-04-25 01:22 35.47361 -97.88795 10681 ft 295 kts 270°
2026-04-25 01:22 35.47361 -97.91421 10851 ft 319 kts 270°
2026-04-25 01:23 35.47364 -97.94236 11036 ft 341 kts 271°
2026-04-25 01:23 35.47367 -97.97236 11207 ft 360 kts 271°
2026-04-25 01:23 35.47370 -98.00379 11532 ft 373 kts 271°
2026-04-25 01:23 35.47373 -98.03581 12162 ft 377 kts 271°
2026-04-25 01:24 35.47374 -98.06795 12934 ft 376 kts 271°
2026-04-25 01:24 35.47375 -98.10018 13620 ft 379 kts 270°
2026-04-25 01:24 35.47377 -98.13220 14202 ft 382 kts 271°
2026-04-25 01:24 35.47546 -98.16483 14771 ft 384 kts 276°
2026-04-25 01:25 35.47869 -98.19746 15393 ft 386 kts 277°
2026-04-25 01:25 35.48207 -98.23023 15999 ft 387 kts 277°
2026-04-25 01:25 35.48525 -98.26302 16625 ft 388 kts 277°
2026-04-25 01:25 35.48826 -98.29591 17242 ft 389 kts 276°
2026-04-25 01:26 35.49121 -98.32890 17845 ft 390 kts 276°
2026-04-25 01:26 35.49413 -98.36198 18379 ft 391 kts 276°
2026-04-25 01:26 35.49707 -98.39533 18829 ft 393 kts 276°
2026-04-25 01:26 35.50003 -98.42886 19291 ft 396 kts 276°
2026-04-25 01:27 35.50299 -98.46248 19795 ft 397 kts 276°
2026-04-25 01:27 35.50596 -98.49627 20287 ft 399 kts 276°
2026-04-25 01:27 35.50893 -98.53015 20778 ft 400 kts 276°
2026-04-25 01:28 35.51489 -98.59834 21701 ft 403 kts 276°
2026-04-25 01:28 35.51783 -98.63221 22131 ft 405 kts 276°
2026-04-25 01:28 35.52083 -98.66674 22561 ft 407 kts 276°
2026-04-25 01:28 35.52383 -98.70146 22970 ft 409 kts 276°
2026-04-25 01:29 35.52683 -98.73626 23373 ft 411 kts 276°
2026-04-25 01:29 35.52982 -98.77129 23742 ft 412 kts 276°
2026-04-25 01:29 35.53280 -98.80622 24111 ft 412 kts 276°
2026-04-25 01:29 35.53575 -98.84083 24481 ft 413 kts 276°
2026-04-25 01:30 35.53873 -98.87588 24861 ft 413 kts 276°
2026-04-25 01:30 35.54174 -98.91107 25225 ft 413 kts 276°
2026-04-25 01:30 35.54480 -98.94619 25549 ft 415 kts 276°
2026-04-25 01:30 35.54795 -98.98145 25835 ft 417 kts 276°
2026-04-25 01:31 35.55120 -99.01697 26099 ft 419 kts 276°
2026-04-25 01:31 35.55457 -99.05260 26365 ft 421 kts 277°
2026-04-25 01:31 35.55810 -99.08836 26643 ft 422 kts 277°
2026-04-25 01:31 35.56181 -99.12431 26944 ft 423 kts 277°
2026-04-25 01:32 35.56565 -99.15965 27280 ft 423 kts 278°
2026-04-25 01:32 35.56975 -99.19535 27611 ft 422 kts 278°
2026-04-25 01:32 35.57408 -99.23103 27882 ft 422 kts 279°
2026-04-25 01:32 35.57862 -99.26674 28072 ft 424 kts 279°
2026-04-25 01:33 35.58333 -99.30257 28186 ft 426 kts 279°
2026-04-25 01:33 35.58818 -99.33857 28270 ft 428 kts 279°
2026-04-25 01:33 35.59845 -99.41082 28474 ft 429 kts 280°
2026-04-25 01:34 35.60395 -99.44688 28623 ft 429 kts 281°
2026-04-25 01:34 35.60973 -99.48297 28746 ft 429 kts 281°
2026-04-25 01:34 35.61578 -99.51876 28869 ft 428 kts 282°
2026-04-25 01:34 35.62212 -99.55455 28956 ft 429 kts 282°
2026-04-25 01:35 35.63564 -99.62612 29031 ft 431 kts 283°
2026-04-25 01:35 35.65002 -99.69723 29075 ft 432 kts 284°
2026-04-25 01:36 35.66571 -99.76852 29189 ft 431 kts 285°
2026-04-25 01:36 35.68273 -99.83948 29264 ft 431 kts 286°
2026-04-25 01:37 35.70108 -99.90990 29296 ft 432 kts 287°
2026-04-25 01:37 35.72062 -99.97989 29317 ft 433 kts 288°
2026-04-25 01:38 35.73627 -100.05004 29881 ft 422 kts 271°
2026-04-25 01:38 35.73174 -100.12052 29801 ft 400 kts 269°
2026-04-25 01:39 35.73293 -100.18774 29797 ft 390 kts 276°
2026-04-25 01:39 35.74021 -100.25392 29803 ft 390 kts 279°
2026-04-25 01:40 35.74990 -100.31978 29796 ft 391 kts 280°
2026-04-25 01:40 35.76015 -100.38543 29795 ft 391 kts 281°
2026-04-25 01:41 35.77037 -100.45069 29793 ft 390 kts 280°
2026-04-25 01:41 35.78057 -100.51643 29793 ft 390 kts 280°
2026-04-25 01:42 35.79072 -100.58220 29842 ft 391 kts 280°
2026-04-25 01:42 35.80082 -100.64792 29798 ft 389 kts 280°
2026-04-25 01:43 35.81078 -100.71304 29796 ft 385 kts 280°
2026-04-25 01:43 35.82064 -100.77777 29798 ft 382 kts 280°
2026-04-25 01:44 35.82874 -100.83113 29808 ft 381 kts 280°
2026-04-25 01:44 35.84002 -100.90565 29803 ft 380 kts 280°
2026-04-25 01:45 35.84805 -100.95895 29810 ft 380 kts 279°
2026-04-25 01:45 35.85771 -101.02323 29799 ft 382 kts 279°
2026-04-25 01:46 35.86736 -101.08770 29779 ft 383 kts 279°
2026-04-25 01:46 35.87702 -101.15251 29774 ft 384 kts 279°
2026-04-25 01:47 35.88665 -101.21739 29779 ft 385 kts 279°
2026-04-25 01:47 35.89628 -101.28244 29775 ft 386 kts 279°
2026-04-25 01:48 35.90588 -101.34761 29770 ft 386 kts 279°
2026-04-25 01:48 35.91540 -101.41247 29776 ft 387 kts 279°
2026-04-25 01:49 35.92495 -101.47780 29762 ft 386 kts 279°
2026-04-25 01:49 35.93446 -101.54308 29763 ft 386 kts 279°
2026-04-25 01:50 35.94393 -101.60831 29771 ft 386 kts 279°
2026-04-25 01:50 35.95334 -101.67346 29770 ft 386 kts 279°
2026-04-25 01:51 35.96272 -101.73865 29761 ft 385 kts 279°
2026-04-25 01:51 35.97207 -101.80381 29767 ft 385 kts 279°
2026-04-25 01:52 35.98132 -101.86857 29770 ft 385 kts 279°
2026-04-25 01:52 35.99060 -101.93372 29768 ft 385 kts 279°
2026-04-25 01:53 35.99884 -101.99912 29763 ft 385 kts 274°